Voltar ao catálogo

SL-8 R/B

AtivoLEO
NORAD 19770·ROCKET BODY·🇷🇺 Russia

Lançado Jan 26, 1989 de Plesetsk Cosmodrome

Loading…

Próximas Passagens (próximas 24 horas)

TLE

AtualizadoSource: Space-Track

Época: Sep 14, 2026, 02:10 UTC

1 19770U 89005B   26257.09029429  .00000095  00000-0  38164-4 0  9993
2 19770  74.0445 302.8712 0005924 267.8422 117.5046 14.40383164971953

Acompanhe SL-8 R/B em tempo real com AllMySat

Download on the App Store